Location: North Bay Shore
(40.7362°N, 73.2626°W)
Time: 04:50:57
(UTC+00:00)

H-2A R/B - Pass Details

Date: 29 October 2020
Orbit: 733 x 837 km, 98.2° (Epoch: 29 November)

Event Time Altitude Azimuth Distance (km) Brightness Sun altitude
Exits shadow 22:58:22 - 132° (SE) 2,946 4.6 -13.0°
Reaches altitude 10° 22:59:50 10° 125° (SE) 2,434 4.2 -13.3°
Maximum altitude 23:04:27 29° 67° (ENE) 1,480 2.9 -14.2°
Drops below altitude 10° 23:09:06 10° 8° (N) 2,459 4.5 -15.1°
Sets 23:11:43 0° 358° (N) 3,394 5.3 -15.6°
